This is the latest recevied weather packets stored in our database for station/object HS3UAA-1. If no packets are shown the sender has not sent any weather packets the latest 10 day(s).
| Time | Temp. | Humidity | Pressure | Rain* | Wind** | Luminosity | Snow |
|---|---|---|---|---|---|---|---|
| 1777721876 | 34.44° C | 35% | 994 hPa | - | - | 0 W/m² | - |
| 1777721553 | 34.44° C | 35% | 994 hPa | - | - | 0 W/m² | - |
| 1777721231 | 33.89° C | 35% | 994 hPa | - | - | 0 W/m² | - |
| 1777720909 | 33.89° C | 35% | 994 hPa | - | - | 0 W/m² | - |
| 1777720587 | 33.89° C | 35% | 993 hPa | - | - | 0 W/m² | - |
| 1777720264 | 33.33° C | 35% | 993 hPa | - | - | 0 W/m² | - |
| 1777719688 | 32.22° C | 36% | 993 hPa | - | - | 0 W/m² | - |
| 1777719366 | 30.56° C | 38% | 993 hPa | - | - | 0 W/m² | - |
| 1777719044 | 28.33° C | 45% | 993 hPa | - | - | 0 W/m² | - |
| 1777718447 | 28.33° C | 42% | 993 hPa | - | - | 0 W/m² | - |
| 1777718125 | 27.78° C | 39% | 993 hPa | - | - | 0 W/m² | - |
| 1777717803 | 28.33° C | 42% | 993 hPa | - | - | 0 W/m² | - |
| 1777717481 | 27.78° C | 40% | 993 hPa | - | - | 0 W/m² | - |
| 1777717159 | 27.78° C | 44% | 993 hPa | - | - | 0 W/m² | - |
| 1777716837 | 28.33° C | 41% | 993 hPa | - | - | 0 W/m² | - |
| 1777716515 | 28.33° C | 43% | 993 hPa | - | - | 0 W/m² | - |
| 1777716193 | 28.33° C | 41% | 993 hPa | - | - | 0 W/m² | - |
| 1777715871 | 27.78° C | 41% | 993 hPa | - | - | 0 W/m² | - |
| 1777715549 | 27.78° C | 41% | 993 hPa | - | - | 0 W/m² | - |
| 1777715227 | 28.33° C | 43% | 993 hPa | - | - | 0 W/m² | - |
| 1777714905 | 28.33° C | 41% | 993 hPa | - | - | 0 W/m² | - |
| 1777714339 | 28.33° C | 44% | 993 hPa | - | - | 0 W/m² | - |
| 1777714017 | 27.78° C | 40% | 993 hPa | - | - | 0 W/m² | - |
| 1777713695 | 28.33° C | 43% | 993 hPa | - | - | 0 W/m² | - |
| 1777713207 | 28.33° C | 41% | 994 hPa | - | - | 0 W/m² | - |
* Rain since midnight (hover to see other rain measurements)
** Current wind speed in m/s (hover to see current wind gust speed)